Weather History for Jerome, ID

Change the Weather History Date:

Saturday, December 7, 2013

  Actual Average Record
Temperature  
Mean Temperature 13 °F 28 °F  
Max Temperature 20 °F 36 °F 58 °F (1987)
Min Temperature 5 °F 21 °F -3 °F (1992)
Degree Days  
Heating Degree Days 52 37  
Month to date heating degree days 300 252  
Since 1 July heating degree days 1783 1803  
Cooling Degree Days 0 0  
Month to date cooling degree days 0 0  
Year to date cooling degree days 904 510  
Moisture  
Dew Point 11 °F    
Average Humidity 88    
Maximum Humidity 100    
Minimum Humidity 76    
Precipitation  
Precipitation 0.02 in 0.04 in 0.42 in (2003)
Month to date precipitation 0.14 0.35  
Year to date precipitation 3.49 9.67  
Sea Level Pressure  
Sea Level Pressure 29.83 in    
Wind  
Wind Speed 20 mph (North)    
Max Wind Speed 28 mph    
Max Gust Speed 33 mph    
Visibility 4 miles    
Events Fog , Snow    
T = Trace of Precipitation, MM = Missing Value Source: NWS Daily Summary

Daily Weather History Graph

Daily Weather History Graph

Search for Another Location

Airport:

Trip Planner

Search our weather history database for the weather conditions in past years. The results will help you decide how hot, cold, wet, or windy it might be!

Date:

Astronomy

Dec. 07, 2013 Rise Set
Actual Time 7:54 AM MST 5:03 PM MST
Civil Twilight 7:22 AM MST 5:35 PM MST
Nautical Twilight 6:47 AM MST 6:11 PM MST
Astronomical Twilight 6:13 AM MST 6:45 PM MST
Moon 11:37 AM MST (12/7) 10:55 PM MST (12/7)
Length of Visible Light 10h 12m
Length of Day
9h 09m
Waxing Crescent, 30% of the Moon is Illuminated
Dec 7
Waxing Crescent
Dec 9
First Quarter
Dec 17
Full
Dec 25
Last Quarter
Jan 1
New

Hourly Weather History & Observations

Time (MST) Temp. Windchill Dew Point Humidity Pressure Visibility Wind Dir Wind Speed Gust Speed Precip Events Conditions
12:53 AM 12.9 °F -6.9 °F 6.1 °F 74% 29.98 in 10.0 mi NE 25.3 mph 32.2 mph N/A   Overcast
1:20 AM 12.9 °F -6.9 °F 7.0 °F 77% 29.81 in 5.0 mi NE 25.3 mph 32.2 mph 0.00 in Snow Light Snow
1:39 AM 12.9 °F -6.1 °F 7.0 °F 77% 29.80 in 2.5 mi NE 23.0 mph - 0.00 in Snow Light Snow
1:53 AM 12.9 °F -5.7 °F 8.1 °F 81% 29.94 in 2.5 mi NE 21.9 mph 29.9 mph 0.00 in Snow Light Snow
2:38 AM 12.0 °F -8.5 °F 9.0 °F 88% 29.78 in 3.0 mi NE 26.5 mph - 0.00 in Snow Light Snow
2:53 AM 12.0 °F -7.7 °F 9.0 °F 88% 29.92 in 4.0 mi NE 24.2 mph - 0.00 in Snow Light Snow
3:26 AM 12.9 °F -6.5 °F 9.0 °F 84% 29.75 in 3.0 mi NE 24.2 mph - 0.00 in Snow Light Snow
3:35 AM 12.9 °F -6.1 °F 10.0 °F 88% 29.74 in 2.5 mi NE 23.0 mph - 0.00 in Snow Light Snow
3:53 AM 12.9 °F -6.1 °F 10.0 °F 88% 29.89 in 2.5 mi NE 23.0 mph - 0.00 in Snow Light Snow
4:01 AM 12.9 °F -6.1 °F 10.0 °F 88% 29.74 in 3.0 mi NE 23.0 mph - 0.00 in Snow Light Snow
4:40 AM 12.9 °F -6.5 °F 10.0 °F 88% 29.72 in 2.0 mi NE 24.2 mph - 0.00 in Snow Light Snow
4:53 AM 12.9 °F -6.5 °F 10.0 °F 88% 29.87 in 2.0 mi NE 24.2 mph - 0.00 in Snow Light Snow
5:19 AM 12.9 °F -6.5 °F 10.0 °F 88% 29.70 in 3.0 mi NE 24.2 mph - 0.00 in Snow Light Snow
5:27 AM 12.9 °F -6.9 °F 10.0 °F 88% 29.70 in 2.5 mi NE 25.3 mph - 0.00 in Snow Light Snow
5:42 AM 12.9 °F -6.5 °F 10.0 °F 88% 29.70 in 3.0 mi NE 24.2 mph - 0.00 in Snow Light Snow
5:53 AM 12.9 °F -6.1 °F 10.0 °F 88% 29.84 in 4.0 mi NE 23.0 mph - 0.00 in Snow Light Snow
6:49 AM 12.2 °F -7.1 °F 10.4 °F 92% 29.68 in 7.0 mi NE 23.0 mph 33.4 mph 0.00 in Snow Light Snow
6:53 AM 12.9 °F -6.9 °F 10.0 °F 88% 29.84 in 8.0 mi NE 25.3 mph 33.4 mph 0.00 in   Overcast
7:29 AM 14.0 °F -5.5 °F 10.9 °F 88% 29.68 in 3.0 mi NE 25.3 mph - 0.00 in Snow Light Snow
7:40 AM 14.0 °F -5.5 °F 10.9 °F 88% 29.68 in 2.0 mi NE 25.3 mph - 0.00 in Snow Light Snow
7:53 AM 14.0 °F -5.1 °F 10.9 °F 88% 29.83 in 2.0 mi NE 24.2 mph 31.1 mph 0.00 in Snow Light Snow
7:58 AM 14.0 °F -5.1 °F 10.9 °F 88% 29.68 in 1.8 mi NE 24.2 mph - 0.00 in Snow Light Snow
8:53 AM 14.0 °F -4.7 °F 10.9 °F 88% 29.85 in 1.0 mi NE 23.0 mph - 0.00 in Snow Light Snow
9:33 AM 15.1 °F -3.3 °F 12.0 °F 88% 29.70 in 2.0 mi NE 23.0 mph - 0.00 in Snow Light Snow
9:43 AM 15.1 °F -4.0 °F 12.0 °F 88% 29.70 in 5.0 mi NE 25.3 mph - 0.00 in Snow Light Snow
9:53 AM 15.1 °F -4.0 °F 12.0 °F 88% 29.86 in 5.0 mi NE 25.3 mph 31.1 mph 0.00 in Snow Light Snow
10:38 AM 16.0 °F -1.7 °F 12.0 °F 84% 29.72 in 2.0 mi NE 21.9 mph - 0.00 in Snow Light Snow
10:53 AM 16.0 °F -0.4 °F 12.9 °F 88% 29.87 in 1.8 mi NE 18.4 mph 26.5 mph 0.00 in Snow Light Snow
11:01 AM 16.0 °F -0.9 °F 12.9 °F 88% 29.72 in 2.5 mi NE 19.6 mph - 0.00 in Snow Light Snow
11:12 AM 17.1 °F 0.1 °F 12.9 °F 84% 29.72 in 3.0 mi NE 20.7 mph - 0.00 in Snow Light Snow
11:31 AM 18.0 °F 3.1 °F 14.0 °F 84% 29.73 in 2.0 mi NE 16.1 mph - 0.00 in Snow Light Snow
11:53 AM 18.0 °F 1.7 °F 14.0 °F 84% 29.86 in 2.5 mi NNE 19.6 mph - 0.00 in Snow Light Snow
12:01 PM 18.0 °F 1.7 °F 14.0 °F 84% 29.72 in 4.0 mi NE 19.6 mph - 0.00 in Snow Light Snow
12:20 PM 19.0 °F 3.6 °F 14.0 °F 81% 29.72 in 6.0 mi NE 18.4 mph - 0.00 in Snow Light Snow
12:53 PM 19.0 °F 5.6 °F 14.0 °F 81% 29.86 in 5.0 mi NE 13.8 mph - 0.00 in Snow Light Snow
1:27 PM 19.9 °F 8.6 °F 15.1 °F 81% 29.73 in 2.5 mi NNE 10.4 mph - 0.00 in Snow Light Snow
1:34 PM 19.0 °F 7.5 °F 15.1 °F 85% 29.73 in 3.0 mi NNE 10.4 mph - 0.00 in Snow Light Snow
1:53 PM 19.9 °F 10.1 °F 15.1 °F 81% 29.88 in 7.0 mi NNE 8.1 mph - 0.00 in Snow Light Snow
2:23 PM 19.0 °F 12.3 °F 15.1 °F 85% 29.75 in 1.8 mi WNW 4.6 mph - 0.00 in Snow Light Snow
2:30 PM 19.0 °F 13.9 °F 15.1 °F 85% 29.76 in 1.2 mi WNW 3.5 mph - 0.00 in Snow Light Snow
2:44 PM 19.0 °F 11.1 °F 16.0 °F 88% 29.76 in 0.8 mi West 5.8 mph - 0.01 in Snow Light Snow
2:53 PM 17.1 °F 3.6 °F 15.1 °F 92% 29.92 in 0.5 mi West 12.7 mph - 0.01 in Fog , Snow Snow
3:20 PM 17.1 °F 2.5 °F 15.1 °F 92% 29.77 in 1.2 mi WSW 15.0 mph - 0.01 in Snow Light Snow
3:35 PM 16.0 °F 2.3 °F 15.1 °F 96% 29.78 in 2.5 mi West 12.7 mph - 0.01 in Snow Light Snow
3:42 PM 16.0 °F 1.1 °F 15.1 °F 96% 29.79 in 3.0 mi West 15.0 mph - 0.01 in Snow Light Snow
3:53 PM 16.0 °F 0.6 °F 15.1 °F 96% 29.94 in 5.0 mi West 16.1 mph - 0.01 in Snow Light Snow
4:20 PM 16.0 °F -0.4 °F 14.0 °F 92% 29.81 in 2.0 mi WSW 18.4 mph 24.2 mph 0.00 in Snow Light Snow
4:27 PM 16.0 °F -0.4 °F 14.0 °F 92% 29.81 in 1.5 mi WSW 18.4 mph - 0.00 in Snow Light Snow
4:41 PM 14.0 °F -3.0 °F 12.9 °F 95% 29.83 in 2.5 mi WSW 18.4 mph - 0.00 in Snow Light Snow
4:53 PM 14.0 °F -2.0 °F 12.0 °F 92% 29.99 in 1.8 mi WSW 16.1 mph - 0.00 in Snow Light Snow
5:15 PM 12.9 °F -2.8 °F 12.0 °F 96% 29.84 in 3.0 mi WSW 15.0 mph - 0.00 in Snow Light Snow
5:53 PM 12.0 °F -4.5 °F 10.0 °F 92% 30.02 in 2.5 mi WSW 16.1 mph - 0.00 in Snow Light Snow
6:01 PM 12.0 °F -4.0 °F 10.0 °F 92% 29.86 in 2.0 mi SW 15.0 mph - 0.00 in Snow Light Snow
6:08 PM 12.0 °F -4.0 °F 10.0 °F 92% 29.86 in 1.8 mi WSW 15.0 mph - 0.00 in Snow Light Snow
6:21 PM 12.0 °F -4.5 °F 10.0 °F 92% 29.87 in 1.8 mi SW 16.1 mph - 0.00 in Snow Light Snow
6:34 PM 12.0 °F -5.1 °F 10.0 °F 92% 29.87 in 2.0 mi SW 17.3 mph - 0.00 in Snow Light Snow
6:53 PM 12.0 °F -6.5 °F 10.0 °F 92% 30.04 in 4.0 mi WSW 20.7 mph - 0.00 in Snow Light Snow
7:01 PM 12.0 °F -6.5 °F 9.0 °F 88% 29.87 in 8.0 mi WSW 20.7 mph - 0.00 in   Overcast
7:15 PM 10.9 °F -6.5 °F 8.1 °F 88% 29.88 in 10.0 mi SW 17.3 mph - 0.00 in   Overcast
7:50 PM 10.4 °F -6.0 °F 6.8 °F 85% 29.90 in 9.0 mi SW 15.0 mph 25.3 mph 0.00 in   Mostly Cloudy
7:53 PM 10.0 °F -5.9 °F 6.1 °F 84% 30.07 in 10.0 mi SW 13.8 mph 25.3 mph 0.00 in   Mostly Cloudy
8:53 PM 10.0 °F -8.6 °F 6.1 °F 84% 30.09 in 10.0 mi SW 19.6 mph - N/A   Overcast
9:53 PM 8.1 °F -12.2 °F 3.0 °F 80% 30.11 in 10.0 mi SW 21.9 mph 27.6 mph N/A   Partly Cloudy
10:27 PM 7.0 °F -12.6 °F 3.0 °F 84% 29.94 in 10.0 mi WSW 19.6 mph 27.6 mph N/A   Mostly Cloudy
10:53 PM 6.1 °F -12.8 °F 1.9 °F 83% 30.13 in 10.0 mi WSW 17.3 mph - N/A   Mostly Cloudy
11:53 PM 5.0 °F -13.0 °F 1.0 °F 84% 30.15 in 10.0 mi SW 15.0 mph - N/A   Overcast